Hlavní strana
METAR-TAF:

METAR-TAF

Letiště :

Georgetown, Jižní Karolína, Spojené státy americké

zeměpisná šířka: 33-18-41N, zeměpisná délka: 079-19-13W, výška: 12 m

Aktuální stav počasí

Zpráva byla vytvořena před 9 minutami, v 23:55 UTC
Západní vítr 7 kt
Teplota 11°C
Vlhkost vzduchu 71%
Tlak 1007 hPa
Viditelnost: 16.1 km
Zataženo ve výšce 2900 ft

METAR: KGGE 302355Z AUTO 28007KT 10SM OVC029 11/06 A2975 RMK AO2

Čas: 19:04 (00:04 UTC)


TAF: chybějící

Stav a předpovědi počasí z více než 4 000 letišť (zprávy METAR a TAF).

Červené a žluté tečky na mapě představují dostupné meteorologické stanice.

Když kurzor umístíte na tečku, zobrazí se název stanice.

Pak kliknutím zobrazíte stav a předpověď počasí.

Chcete-li změnit mapu, kliknutím na zelené tlačítko se znaménkem +mapu přiblížíte, kliknutím na zelené tlačítko se znaménkem – mapu oddálíte a kliknutím na zelené šipky přejdete na sousední mapy.


METAR-TAF: